Location: Asheville, NC
(35.6000°N, 82.5500°W)
Time: 14:24:01
(UTC-04:00)

KKS-1 - Pass Details

Date: 08 January 2018
Orbit: 638 x 650 km, 98.4° (Epoch: 15 July)

Event Time Altitude Azimuth Distance (km) Brightness Sun altitude
Rises 17:54:00 0° 13° (NNE) 2,947 ? -4.5°
Reaches altitude 10° 17:56:13 10° 14° (NNE) 2,035 ? -4.9°
Maximum altitude 18:00:40 86° 104° (ESE) 647 ? -5.7°
Drops below altitude 10° 18:05:05 10° 192° (SSW) 2,029 ? -6.6°
Sets 18:07:17 0° 193° (SSW) 2,936 ? -7.0°
